| time (UTC) | temp F | wind direction | speed MPH | gust MPH | rain 1hr in | rain 24hr in | rain mn in | humidity % | barometer mb |
| 20260902222753 | 78 | 125 | 0.0 | 0.0 | 0.00 | 0.17 | 0.17 | 100 | 1015.5 |
| 20260902222507 | 78 | 125 | 0.0 | 0.0 | 0.00 | 0.17 | 0.17 | 100 | 1015.3 |
| 20260902221805 | 78 | 125 | 0.0 | 0.0 | 0.00 | 0.17 | 0.17 | 100 | 1015.2 |
| 20260902221743 | 78 | 125 | 0.0 | 0.0 | 0.00 | 0.17 | 0.17 | 100 | 1015.3 |
| 20260902220727 | 78 | 125 | 0.0 | 0.0 | 0.00 | 0.17 | 0.17 | 100 | 1015.6 |
| 20260902220448 | 79 | 125 | 0.0 | 0.0 | 0.00 | 0.17 | 0.17 | 100 | 1015.6 |
| 20260902215728 | 79 | 125 | 0.0 | 0.0 | 0.00 | 0.17 | 0.17 | 100 | 1015.5 |
| 20260902215446 | 79 | 125 | 0.0 | 0.0 | 0.00 | 0.17 | 0.17 | 100 | 1015.6 |
| 20260902214721 | 79 | 125 | 0.0 | 0.0 | 0.00 | 0.17 | 0.17 | 100 | 1015.8 |
| 20260902214220 | 79 | 125 | 0.0 | 0.0 | 0.00 | 0.17 | 0.17 | 100 | 1015.5 |
| 20260902213706 | 79 | 125 | 0.0 | 0.0 | 0.00 | 0.17 | 0.17 | 100 | 1015.8 |
| 20260902213156 | 79 | 125 | 0.0 | 0.0 | 0.00 | 0.17 | 0.17 | 100 | 1016.0 |
| 20260902212655 | 79 | 125 | 0.0 | 0.0 | 0.00 | 0.17 | 0.17 | 100 | 1015.8 |
| 20260902212150 | 79 | 125 | 0.0 | 0.0 | 0.00 | 0.17 | 0.17 | 100 | 1015.7 |
| 20260902211640 | 79 | 125 | 0.0 | 0.0 | 0.00 | 0.17 | 0.17 | 100 | 1015.8 |
| 20260902211133 | 79 | 125 | 0.0 | 0.0 | 0.00 | 0.17 | 0.17 | 100 | 1015.9 |
| 20260902210628 | 79 | 125 | 0.0 | 0.0 | 0.00 | 0.17 | 0.17 | 100 | 1016.0 |
| 20260902210122 | 79 | 125 | 0.0 | 0.0 | 0.00 | 0.17 | 0.17 | 100 | 1016.1 |
| 20260902205625 | 79 | 125 | 0.0 | 0.0 | 0.00 | 0.17 | 0.17 | 100 | 1016.3 |
| 20260902205113 | 79 | 125 | 0.0 | 0.0 | 0.00 | 0.17 | 0.17 | 100 | 1016.5 |
| 20260902204610 | 79 | 125 | 0.0 | 0.0 | 0.00 | 0.17 | 0.17 | 100 | 1016.7 |
| 20260902204105 | 79 | 125 | 0.0 | 0.0 | 0.00 | 0.17 | 0.17 | 100 | 1017.0 |
| 20260902203605 | 79 | 125 | 0.0 | 0.0 | 0.00 | 0.17 | 0.17 | 100 | 1016.7 |
| 20260902203107 | 80 | 125 | 0.0 | 0.0 | 0.00 | 0.17 | 0.17 | 100 | 1017.0 |
| 20260902202552 | 80 | 125 | 0.0 | 0.0 | 0.00 | 0.17 | 0.17 | 100 | 1016.7 |
| 20260902202052 | 80 | 125 | 0.0 | 0.0 | 0.00 | 0.17 | 0.17 | 100 | 1016.9 |
| 20260902201540 | 80 | 125 | 0.0 | 0.0 | 0.00 | 0.17 | 0.17 | 100 | 1016.5 |
| 20260902201257 | 80 | 125 | 0.0 | 0.0 | 0.00 | 0.17 | 0.17 | 100 | 1016.4 |
| 20260902200531 | 80 | 125 | 0.0 | 0.0 | 0.00 | 0.17 | 0.17 | 100 | 1016.4 |
| 20260902200045 | 80 | 125 | 0.0 | 0.0 | 0.00 | 0.17 | 0.17 | 100 | 1016.5 |
| 20260902195529 | 81 | 125 | 0.0 | 0.0 | 0.00 | 0.17 | 0.17 | 100 | 1016.5 |
| 20260902195035 | 81 | 125 | 0.0 | 0.0 | 0.00 | 0.17 | 0.17 | 100 | 1016.7 |
| 20260902194518 | 81 | 125 | 0.0 | 5.0 | 0.00 | 0.17 | 0.17 | 100 | 1017.0 |
| 20260902194017 | 81 | 125 | 1.0 | 5.0 | 0.09 | 0.17 | 0.17 | 100 | 1017.0 |
| 20260902193513 | 82 | 125 | 0.0 | 5.0 | 0.17 | 0.17 | 0.17 | 100 | 1017.0 |
| 20260902193248 | 82 | 124 | 0.0 | 5.0 | 0.17 | 0.17 | 0.17 | 100 | 1016.5 |
| 20260902192744 | 82 | 124 | 0.0 | 9.0 | 0.17 | 0.17 | 0.17 | 100 | 1016.5 |
| 20260902192244 | 82 | 123 | 0.0 | 9.0 | 0.17 | 0.17 | 0.17 | 100 | 1016.9 |
| 20260902191507 | 83 | 130 | 0.0 | 5.0 | 0.17 | 0.17 | 0.17 | 100 | 1017.4 |
| 20260902191010 | 83 | 71 | 0.0 | 0.0 | 0.17 | 0.17 | 0.17 | 100 | 1017.6 |
| 20260902190502 | 82 | 46 | 0.0 | 0.0 | 0.17 | 0.17 | 0.17 | 100 | 1017.3 |
| 20260902190002 | 82 | 46 | 0.0 | 0.0 | 0.17 | 0.17 | 0.17 | 100 | 1017.0 |
| 20260902185504 | 81 | 46 | 0.0 | 0.0 | 0.17 | 0.17 | 0.17 | 100 | 1017.3 |
| 20260902185001 | 81 | 47 | 0.0 | 5.0 | 0.17 | 0.17 | 0.17 | 100 | 1017.5 |
| 20260902184503 | 81 | 47 | 2.0 | 18.0 | 0.17 | 0.17 | 0.17 | 100 | 1017.9 |
| 20260902183958 | 83 | 189 | 2.0 | 24.0 | 0.06 | 0.06 | 0.08 | 100 | 1018.4 |
| 20260902183452 | 86 | 157 | 0.0 | 24.0 | 0.00 | 0.00 | 0.00 | 100 | 1018.5 |
| 20260902183220 | 87 | 346 | 1.0 | 7.0 | 0.00 | 0.00 | 0.00 | 100 | 1018.4 |
| 20260902182711 | 87 | 137 | 0.0 | 5.0 | 0.00 | 0.00 | 0.00 | 100 | 1017.9 |
| 20260902182155 | 88 | 137 | 0.0 | 5.0 | 0.00 | 0.00 | 0.00 | 100 | 1017.7 |
| 20260902182046 | 88 | 137 | 0.0 | 5.0 | 0.00 | 0.00 | 0.00 | 100 | 1018.0 |
| 20260902180934 | 88 | 137 | 0.0 | 0.0 | 0.00 | 0.00 | 0.00 | 100 | 1017.8 |
| 20260902180424 | 88 | 137 | 0.0 | 0.0 | 0.00 | 0.00 | 0.00 | 100 | 1017.7 |
| 20260902175918 | 88 | 137 | 0.0 | 3.0 | 0.00 | 0.00 | 0.00 | 100 | 1017.5 |
| 20260902175411 | 88 | 137 | 0.0 | 4.0 | 0.00 | 0.00 | 0.00 | 100 | 1017.5 |
| 20260902175113 | 87 | 137 | 0.0 | 5.0 | 0.00 | 0.00 | 0.00 | 100 | 1017.4 |
| 20260902174344 | 87 | 137 | 0.0 | 5.0 | 0.00 | 0.00 | 0.00 | 100 | 1017.4 |
| 20260902173842 | 87 | 137 | 0.0 | 2.0 | 0.00 | 0.00 | 0.00 | 100 | 1017.2 |
| 20260902173345 | 87 | 137 | 0.0 | 4.0 | 0.00 | 0.00 | 0.00 | 100 | 1017.2 |
| 20260902172842 | 87 | 137 | 0.0 | 4.0 | 0.00 | 0.00 | 0.00 | 100 | 1017.2 |
| 20260902172336 | 87 | 137 | 0.0 | 5.0 | 0.00 | 0.00 | 0.00 | 100 | 1017.1 |
| 20260902171832 | 87 | 137 | 0.0 | 6.0 | 0.00 | 0.00 | 0.00 | 100 | 1017.2 |
| 20260902171328 | 87 | 137 | 0.0 | 6.0 | 0.00 | 0.00 | 0.00 | 100 | 1017.2 |
| 20260902170829 | 87 | 137 | 1.0 | 6.0 | 0.00 | 0.00 | 0.00 | 100 | 1017.1 |
| 20260902170332 | 86 | 137 | 1.0 | 6.0 | 0.00 | 0.00 | 0.00 | 100 | 1016.9 |
| 20260902170040 | 86 | 137 | 1.0 | 6.0 | 0.00 | 0.00 | 0.00 | 100 | 1017.0 |
| 20260902165315 | 86 | 137 | 1.0 | 6.0 | 0.00 | 0.00 | 0.00 | 100 | 1016.9 |
| 20260902164809 | 86 | 137 | 1.0 | 6.0 | 0.00 | 0.00 | 0.00 | 100 | 1017.0 |
| 20260902164307 | 86 | 137 | 1.0 | 6.0 | 0.00 | 0.00 | 0.00 | 100 | 1017.0 |
| 20260902163800 | 86 | 140 | 0.0 | 6.0 | 0.00 | 0.00 | 0.00 | 100 | 1017.0 |
| 20260902163258 | 86 | 140 | 1.0 | 5.0 | 0.00 | 0.00 | 0.00 | 100 | 1017.2 |
| 20260902162748 | 85 | 140 | 1.0 | 5.0 | 0.00 | 0.00 | 0.00 | 100 | 1017.2 |
| 20260902162242 | 85 | 140 | 0.0 | 5.0 | 0.00 | 0.00 | 0.00 | 100 | 1017.1 |
| 20260902161745 | 85 | 140 | 0.0 | 5.0 | 0.00 | 0.00 | 0.00 | 100 | 1017.1 |
| 20260902161227 | 85 | 140 | 0.0 | 5.0 | 0.00 | 0.00 | 0.00 | 100 | 1017.0 |
| 20260902161211 | 85 | 140 | 1.0 | 4.0 | 0.00 | 0.00 | 0.00 | 100 | 1017.1 |
| 20260902160212 | 85 | 140 | 1.0 | 5.0 | 0.00 | 0.00 | 0.00 | 100 | 1017.1 |
| 20260902155701 | 85 | 140 | 0.0 | 5.0 | 0.00 | 0.00 | 0.00 | 100 | 1017.0 |
| 20260902155154 | 85 | 140 | 0.0 | 6.0 | 0.00 | 0.00 | 0.00 | 100 | 1017.0 |
| 20260902154645 | 85 | 140 | 1.0 | 6.0 | 0.00 | 0.00 | 0.00 | 100 | 1017.0 |
| 20260902154142 | 85 | 139 | 1.0 | 5.0 | 0.00 | 0.00 | 0.00 | 100 | 1017.0 |
| 20260902153648 | 85 | 140 | 1.0 | 5.0 | 0.00 | 0.00 | 0.00 | 100 | 1016.9 |
| 20260902153358 | 84 | 140 | 1.0 | 7.0 | 0.00 | 0.00 | 0.00 | 100 | 1017.0 |
| 20260902152635 | 84 | 142 | 1.0 | 7.0 | 0.00 | 0.00 | 0.00 | 100 | 1016.9 |
| 20260902152130 | 85 | 142 | 0.0 | 4.0 | 0.00 | 0.00 | 0.00 | 100 | 1017.0 |
| 20260902151631 | 85 | 142 | 1.0 | 4.0 | 0.00 | 0.00 | 0.00 | 100 | 1017.0 |
| 20260902151125 | 85 | 150 | 0.0 | 4.0 | 0.00 | 0.00 | 0.00 | 100 | 1016.9 |
| 20260902150625 | 85 | 150 | 0.0 | 4.0 | 0.00 | 0.00 | 0.00 | 100 | 1017.0 |
| 20260902150125 | 85 | 150 | 0.0 | 4.0 | 0.00 | 0.00 | 0.00 | 100 | 1017.0 |
| 20260902145623 | 85 | 150 | 0.0 | 4.0 | 0.00 | 0.00 | 0.00 | 100 | 1017.1 |
| 20260902145108 | 85 | 150 | 0.0 | 4.0 | 0.00 | 0.00 | 0.00 | 100 | 1017.1 |
| 20260902144601 | 85 | 150 | 0.0 | 5.0 | 0.00 | 0.00 | 0.00 | 100 | 1017.1 |
| 20260902144100 | 85 | 150 | 0.0 | 5.0 | 0.00 | 0.00 | 0.00 | 100 | 1017.2 |
| 20260902143826 | 85 | 150 | 0.0 | 4.0 | 0.00 | 0.00 | 0.00 | 100 | 1017.0 |
| 20260902143041 | 85 | 150 | 1.0 | 6.0 | 0.00 | 0.00 | 0.00 | 100 | 1017.0 |
| 20260902142543 | 84 | 150 | 1.0 | 6.0 | 0.00 | 0.00 | 0.00 | 100 | 1017.0 |
| 20260902142022 | 85 | 159 | 0.0 | 5.0 | 0.00 | 0.00 | 0.00 | 100 | 1017.1 |
| 20260902141524 | 85 | 159 | 0.0 | 5.0 | 0.00 | 0.00 | 0.00 | 100 | 1017.0 |
| 20260902141023 | 85 | 159 | 0.0 | 4.0 | 0.00 | 0.00 | 0.00 | 100 | 1017.0 |
| 20260902140521 | 85 | 159 | 0.0 | 2.0 | 0.00 | 0.00 | 0.00 | 100 | 1017.0 |
| 20260902140025 | 85 | 159 | 0.0 | 2.0 | 0.00 | 0.00 | 0.00 | 100 | 1017.0 |
| 20260902135520 | 85 | 159 | 0.0 | 2.0 | 0.00 | 0.00 | 0.00 | 100 | 1016.9 |
| 20260902135017 | 85 | 159 | 0.0 | 2.0 | 0.00 | 0.00 | 0.00 | 100 | 1016.6 |
| 20260902134725 | 85 | 159 | 0.0 | 2.0 | 0.00 | 0.00 | 0.00 | 100 | 1016.6 |
| 20260902134008 | 85 | 159 | 0.0 | 2.0 | 0.00 | 0.00 | 0.00 | 100 | 1016.6 |
| 20260902133954 | 85 | 159 | 0.0 | 5.0 | 0.00 | 0.00 | 0.00 | 100 | 1016.4 |
| 20260902132959 | 84 | 159 | 0.0 | 5.0 | 0.00 | 0.00 | 0.00 | 100 | 1016.3 |
| 20260902132458 | 84 | 159 | 0.0 | 4.0 | 0.00 | 0.00 | 0.00 | 100 | 1016.3 |
| 20260902131955 | 84 | 159 | 0.0 | 2.0 | 0.00 | 0.00 | 0.00 | 100 | 1016.1 |
| 20260902131441 | 84 | 159 | 0.0 | 2.0 | 0.00 | 0.00 | 0.00 | 100 | 1016.2 |
| 20260902131212 | 84 | 159 | 0.0 | 2.0 | 0.00 | 0.00 | 0.00 | 100 | 1016.2 |
| 20260902130426 | 84 | 159 | 0.0 | 2.0 | 0.00 | 0.00 | 0.00 | 100 | 1016.2 |
| 20260902125909 | 84 | 159 | 0.0 | 5.0 | 0.00 | 0.00 | 0.00 | 100 | 1016.3 |
| 20260902125402 | 84 | 159 | 0.0 | 5.0 | 0.00 | 0.00 | 0.00 | 100 | 1016.3 |
| 20260902124855 | 83 | 160 | 0.0 | 2.0 | 0.00 | 0.00 | 0.00 | 100 | 1016.2 |
| 20260902124350 | 83 | 160 | 0.0 | 2.0 | 0.00 | 0.00 | 0.00 | 100 | 1016.1 |
| 20260902123848 | 83 | 160 | 0.0 | 3.0 | 0.00 | 0.00 | 0.00 | 100 | 1016.1 |
| 20260902123327 | 83 | 160 | 0.0 | 3.0 | 0.00 | 0.00 | 0.00 | 100 | 1016.2 |
| 20260902122823 | 83 | 160 | 0.0 | 3.0 | 0.00 | 0.00 | 0.00 | 100 | 1016.2 |
| 20260902122300 | 83 | 160 | 0.0 | 3.0 | 0.00 | 0.00 | 0.00 | 100 | 1016.2 |
| 20260902121805 | 82 | 160 | 0.0 | 5.0 | 0.00 | 0.00 | 0.00 | 100 | 1016.1 |
| 20260902121532 | 82 | 160 | 0.0 | 5.0 | 0.00 | 0.00 | 0.00 | 100 | 1016.0 |
| 20260902120803 | 82 | 161 | 0.0 | 4.0 | 0.00 | 0.00 | 0.00 | 100 | 1016.1 |
| 20260902120255 | 82 | 161 | 0.0 | 0.0 | 0.00 | 0.00 | 0.00 | 100 | 1016.0 |
| 20260902115800 | 81 | 161 | 0.0 | 0.0 | 0.00 | 0.00 | 0.00 | 100 | 1016.0 |
| 20260902115242 | 81 | 161 | 0.0 | 1.0 | 0.00 | 0.00 | 0.00 | 100 | 1015.9 |
| 20260902114739 | 81 | 161 | 0.0 | 5.0 | 0.00 | 0.00 | 0.00 | 100 | 1015.9 |
| 20260902114228 | 81 | 161 | 0.0 | 5.0 | 0.00 | 0.00 | 0.00 | 100 | 1016.0 |
| 20260902113724 | 81 | 161 | 0.0 | 3.0 | 0.00 | 0.00 | 0.00 | 100 | 1015.9 |
| 20260902113440 | 80 | 161 | 0.0 | 0.0 | 0.00 | 0.00 | 0.00 | 100 | 1015.9 |
| 20260902112717 | 80 | 161 | 0.0 | 0.0 | 0.00 | 0.00 | 0.00 | 100 | 1015.8 |
| 20260902112204 | 80 | 161 | 0.0 | 0.0 | 0.00 | 0.00 | 0.00 | 100 | 1015.9 |
| 20260902111718 | 80 | 161 | 0.0 | 0.0 | 0.00 | 0.00 | 0.00 | 100 | 1015.7 |
| 20260902111702 | 80 | 161 | 0.0 | 0.0 | 0.00 | 0.00 | 0.00 | 100 | 1015.8 |
| 20260902110702 | 81 | 161 | 0.0 | 0.0 | 0.00 | 0.00 | 0.00 | 100 | 1015.5 |
| 20260902110647 | 81 | 161 | 0.0 | 0.0 | 0.00 | 0.00 | 0.00 | 100 | 1015.6 |
| 20260902105636 | 81 | 161 | 0.0 | 0.0 | 0.00 | 0.00 | 0.00 | 100 | 1015.5 |
| 20260902105130 | 81 | 161 | 0.0 | 0.0 | 0.00 | 0.00 | 0.00 | 100 | 1015.5 |
| 20260902104627 | 81 | 161 | 0.0 | 0.0 | 0.00 | 0.00 | 0.00 | 100 | 1015.5 |
| 20260902104341 | 81 | 161 | 0.0 | 0.0 | 0.00 | 0.00 | 0.00 | 100 | 1015.5 |
| 20260902103619 | 81 | 161 | 0.0 | 0.0 | 0.00 | 0.00 | 0.00 | 100 | 1015.4 |
| 20260902103043 | 81 | 161 | 0.0 | 0.0 | 0.00 | 0.00 | 0.00 | 100 | 1015.4 |
| 20260902102731 | 81 | 161 | 0.0 | 0.0 | 0.00 | 0.00 | 0.00 | 100 | 1015.3 |
| 20260902102216 | 81 | 161 | 0.0 | 0.0 | 0.00 | 0.00 | 0.00 | 100 | 1015.2 |
| 20260902101435 | 82 | 161 | 0.0 | 0.0 | 0.00 | 0.00 | 0.00 | 100 | 1015.3 |
| 20260902100931 | 82 | 161 | 0.0 | 0.0 | 0.00 | 0.00 | 0.00 | 100 | 1015.2 |
| 20260902100419 | 82 | 161 | 0.0 | 0.0 | 0.00 | 0.00 | 0.00 | 100 | 1015.2 |
| 20260902095901 | 82 | 161 | 0.0 | 0.0 | 0.00 | 0.00 | 0.00 | 100 | 1015.2 |
| 20260902095402 | 82 | 161 | 0.0 | 0.0 | 0.00 | 0.00 | 0.00 | 100 | 1015.1 |
| 20260902095128 | 82 | 161 | 0.0 | 0.0 | 0.00 | 0.00 | 0.00 | 100 | 1015.2 |
| 20260902094407 | 82 | 161 | 0.0 | 0.0 | 0.00 | 0.00 | 0.00 | 100 | 1015.2 |
| 20260902093852 | 82 | 161 | 0.0 | 0.0 | 0.00 | 0.00 | 0.00 | 100 | 1015.2 |
| 20260902093339 | 82 | 161 | 0.0 | 0.0 | 0.00 | 0.00 | 0.00 | 100 | 1015.1 |
| 20260902092839 | 83 | 161 | 0.0 | 0.0 | 0.00 | 0.00 | 0.00 | 100 | 1015.1 |
| 20260902092328 | 83 | 161 | 0.0 | 0.0 | 0.00 | 0.00 | 0.00 | 100 | 1015.1 |
| 20260902091822 | 83 | 161 | 0.0 | 0.0 | 0.00 | 0.00 | 0.00 | 100 | 1015.1 |
| 20260902091557 | 83 | 161 | 0.0 | 0.0 | 0.00 | 0.00 | 0.00 | 100 | 1015.1 |
| 20260902090817 | 83 | 161 | 0.0 | 0.0 | 0.00 | 0.00 | 0.00 | 100 | 1015.0 |
| 20260902090308 | 83 | 161 | 0.0 | 0.0 | 0.00 | 0.00 | 0.00 | 100 | 1015.0 |
| 20260902085759 | 83 | 161 | 0.0 | 0.0 | 0.00 | 0.00 | 0.00 | 100 | 1015.0 |
| 20260902085256 | 83 | 161 | 0.0 | 0.0 | 0.00 | 0.00 | 0.00 | 100 | 1015.1 |
| 20260902084739 | 83 | 161 | 0.0 | 0.0 | 0.00 | 0.00 | 0.00 | 100 | 1015.0 |
| 20260902084452 | 83 | 161 | 0.0 | 0.0 | 0.00 | 0.00 | 0.00 | 100 | 1015.0 |
| 20260902083720 | 83 | 161 | 0.0 | 0.0 | 0.00 | 0.00 | 0.00 | 100 | 1015.0 |
| 20260902083153 | 83 | 161 | 0.0 | 0.0 | 0.00 | 0.00 | 0.00 | 100 | 1014.9 |
| 20260902082619 | 83 | 161 | 0.0 | 0.0 | 0.00 | 0.00 | 0.00 | 100 | 1014.9 |
| 20260902082338 | 83 | 161 | 0.0 | 0.0 | 0.00 | 0.00 | 0.00 | 100 | 1014.9 |
| 20260902081600 | 83 | 161 | 0.0 | 0.0 | 0.00 | 0.00 | 0.00 | 100 | 1014.9 |
| 20260902081020 | 83 | 161 | 0.0 | 1.0 | 0.00 | 0.00 | 0.00 | 100 | 1014.8 |
| 20260902080509 | 84 | 161 | 0.0 | 4.0 | 0.00 | 0.00 | 0.00 | 100 | 1014.8 |
| 20260902080004 | 84 | 161 | 0.0 | 4.0 | 0.00 | 0.00 | 0.00 | 100 | 1014.9 |
| 20260902075705 | 84 | 161 | 0.0 | 4.0 | 0.00 | 0.00 | 0.00 | 100 | 1014.8 |
| 20260902074935 | 84 | 161 | 0.0 | 4.0 | 0.00 | 0.00 | 0.00 | 100 | 1014.8 |
| 20260902074426 | 84 | 161 | 0.0 | 6.0 | 0.00 | 0.00 | 0.00 | 100 | 1014.7 |
| 20260902073923 | 84 | 161 | 0.0 | 6.0 | 0.00 | 0.00 | 0.00 | 100 | 1014.8 |
| 20260902073415 | 84 | 161 | 0.0 | 6.0 | 0.00 | 0.00 | 0.00 | 100 | 1014.7 |
| 20260902072854 | 84 | 161 | 0.0 | 6.0 | 0.00 | 0.00 | 0.00 | 100 | 1014.8 |
| 20260902072341 | 84 | 162 | 0.0 | 6.0 | 0.00 | 0.00 | 0.00 | 100 | 1014.7 |
| 20260902071841 | 84 | 162 | 0.0 | 3.0 | 0.00 | 0.00 | 0.00 | 100 | 1014.8 |
| 20260902071342 | 84 | 163 | 1.0 | 9.0 | 0.00 | 0.00 | 0.00 | 100 | 1014.5 |
| 20260902070836 | 84 | 163 | 1.0 | 9.0 | 0.00 | 0.00 | 0.00 | 100 | 1014.5 |
| 20260902070342 | 84 | 198 | 0.0 | 5.0 | 0.00 | 0.00 | 0.00 | 100 | 1014.6 |
| 20260902065816 | 84 | 198 | 0.0 | 2.0 | 0.00 | 0.00 | 0.00 | 100 | 1014.8 |
| 20260902065325 | 84 | 201 | 0.0 | 4.0 | 0.00 | 0.00 | 0.00 | 100 | 1014.7 |
| 20260902064808 | 84 | 201 | 0.0 | 4.0 | 0.00 | 0.00 | 0.00 | 100 | 1014.7 |
| 20260902064257 | 84 | 227 | 0.0 | 3.0 | 0.00 | 0.00 | 0.00 | 100 | 1014.7 |
| 20260902063749 | 84 | 227 | 0.0 | 0.0 | 0.00 | 0.00 | 0.00 | 100 | 1014.6 |
| 20260902063250 | 84 | 227 | 0.0 | 0.0 | 0.00 | 0.00 | 0.00 | 100 | 1014.6 |
| 20260902062739 | 84 | 227 | 0.0 | 0.0 | 0.00 | 0.00 | 0.00 | 100 | 1014.5 |
| 20260902062215 | 84 | 227 | 0.0 | 0.0 | 0.00 | 0.00 | 0.00 | 100 | 1014.6 |
| 20260902061707 | 84 | 227 | 0.0 | 0.0 | 0.00 | 0.00 | 0.00 | 100 | 1014.6 |
| 20260902061208 | 85 | 227 | 0.0 | 0.0 | 0.00 | 0.00 | 0.00 | 100 | 1014.6 |
| 20260902060936 | 85 | 227 | 0.0 | 0.0 | 0.00 | 0.00 | 0.00 | 100 | 1014.6 |
| 20260902060158 | 85 | 227 | 0.0 | 0.0 | 0.00 | 0.00 | 0.00 | 100 | 1014.5 |
| 20260902055701 | 85 | 227 | 0.0 | 0.0 | 0.00 | 0.00 | 0.00 | 100 | 1014.4 |
| 20260902055133 | 85 | 227 | 0.0 | 0.0 | 0.00 | 0.00 | 0.00 | 100 | 1014.5 |
| 20260902055053 | 85 | 227 | 0.0 | 0.0 | 0.00 | 0.00 | 0.00 | 100 | 1014.4 |
| 20260902054108 | 85 | 227 | 0.0 | 0.0 | 0.00 | 0.00 | 0.00 | 100 | 1014.3 |
| 20260902053552 | 85 | 227 | 0.0 | 0.0 | 0.00 | 0.00 | 0.00 | 100 | 1014.5 |
| 20260902053041 | 85 | 227 | 0.0 | 0.0 | 0.00 | 0.00 | 0.00 | 100 | 1014.5 |
| 20260902052521 | 85 | 227 | 0.0 | 0.0 | 0.00 | 0.00 | 0.00 | 100 | 1014.3 |
| 20260902052253 | 85 | 227 | 0.0 | 0.0 | 0.00 | 0.00 | 0.00 | 100 | 1014.3 |
| 20260902051503 | 85 | 227 | 0.0 | 0.0 | 0.00 | 0.00 | 0.00 | 100 | 1014.3 |
| 20260902050955 | 85 | 227 | 0.0 | 0.0 | 0.00 | 0.00 | 0.00 | 100 | 1014.3 |
| 20260902050451 | 85 | 227 | 0.0 | 0.0 | 0.00 | 0.00 | 0.00 | 100 | 1014.3 |
| 20260902045938 | 85 | 227 | 0.0 | 0.0 | 0.00 | 0.00 | 0.00 | 100 | 1014.2 |
| 20260902045426 | 85 | 227 | 0.0 | 0.0 | 0.00 | 0.00 | 0.00 | 100 | 1014.3 |
| 20260902044925 | 85 | 227 | 0.0 | 0.0 | 0.00 | 0.00 | 0.00 | 100 | 1014.2 |
| 20260902044416 | 85 | 227 | 0.0 | 0.0 | 0.00 | 0.00 | 0.00 | 100 | 1014.3 |
| 20260902043913 | 85 | 227 | 0.0 | 1.0 | 0.00 | 0.00 | 0.00 | 100 | 1014.3 |
| 20260902043359 | 85 | 227 | 0.0 | 1.0 | 0.00 | 0.00 | 0.00 | 100 | 1014.2 |
| 20260902042859 | 85 | 227 | 0.0 | 0.0 | 0.00 | 0.00 | 0.00 | 100 | 1014.2 |
| 20260902042345 | 85 | 227 | 0.0 | 0.0 | 0.00 | 0.00 | 0.00 | 100 | 1014.2 |
| 20260902042104 | 85 | 227 | 0.0 | 0.0 | 0.00 | 0.00 | 0.00 | 100 | 1014.3 |
| 20260902041338 | 85 | 227 | 0.0 | 0.0 | 0.00 | 0.00 | 0.00 | 100 | 1014.3 |
| 20260902040833 | 85 | 227 | 0.0 | 0.0 | 0.00 | 0.00 | 0.00 | 100 | 1014.4 |
| 20260902040303 | 85 | 227 | 0.0 | 0.0 | 0.00 | 0.00 | 0.00 | 100 | 1014.3 |
| 20260902035750 | 85 | 227 | 0.0 | 0.0 | 0.00 | 0.00 | 0.00 | 100 | 1014.2 |
| 20260902035226 | 86 | 227 | 0.0 | 0.0 | 0.00 | 0.00 | 0.00 | 100 | 1014.2 |
| 20260902034716 | 86 | 227 | 0.0 | 0.0 | 0.00 | 0.00 | 0.00 | 100 | 1014.0 |
| 20260902034209 | 86 | 227 | 0.0 | 0.0 | 0.00 | 0.00 | 0.00 | 100 | 1013.8 |
| 20260902033706 | 86 | 227 | 0.0 | 0.0 | 0.00 | 0.00 | 0.00 | 100 | 1013.7 |
| 20260902033154 | 86 | 227 | 0.0 | 0.0 | 0.00 | 0.00 | 0.00 | 100 | 1013.7 |
| 20260902033139 | 86 | 227 | 0.0 | 0.0 | 0.00 | 0.00 | 0.00 | 100 | 1013.7 |
| 20260902032142 | 86 | 227 | 0.0 | 0.0 | 0.00 | 0.00 | 0.00 | 100 | 1013.6 |
| 20260902031640 | 86 | 227 | 0.0 | 0.0 | 0.00 | 0.00 | 0.00 | 100 | 1013.6 |
| 20260902031125 | 86 | 227 | 0.0 | 0.0 | 0.00 | 0.00 | 0.00 | 100 | 1013.4 |
| 20260902030622 | 86 | 227 | 0.0 | 0.0 | 0.00 | 0.00 | 0.00 | 100 | 1013.4 |
| 20260902030123 | 86 | 227 | 0.0 | 0.0 | 0.00 | 0.00 | 0.00 | 100 | 1013.4 |
| 20260902025614 | 86 | 227 | 0.0 | 0.0 | 0.00 | 0.00 | 0.00 | 100 | 1013.4 |
| 20260902025112 | 86 | 227 | 0.0 | 0.0 | 0.00 | 0.00 | 0.00 | 100 | 1013.3 |
| 20260902024556 | 86 | 227 | 0.0 | 0.0 | 0.00 | 0.00 | 0.00 | 100 | 1013.4 |
| 20260902024026 | 86 | 227 | 0.0 | 0.0 | 0.00 | 0.00 | 0.00 | 100 | 1013.4 |
| 20260902023520 | 86 | 227 | 0.0 | 0.0 | 0.00 | 0.00 | 0.00 | 100 | 1013.4 |
| 20260902023447 | 86 | 227 | 0.0 | 0.0 | 0.00 | 0.00 | 0.00 | 100 | 1013.6 |
| 20260902022436 | 86 | 227 | 0.0 | 0.0 | 0.00 | 0.00 | 0.00 | 100 | 1013.5 |
| 20260902021933 | 86 | 227 | 0.0 | 0.0 | 0.00 | 0.00 | 0.00 | 100 | 1013.6 |
| 20260902021430 | 86 | 227 | 0.0 | 0.0 | 0.00 | 0.00 | 0.00 | 100 | 1013.6 |
| 20260902020928 | 86 | 227 | 0.0 | 0.0 | 0.00 | 0.00 | 0.00 | 100 | 1013.5 |
| 20260902020415 | 86 | 227 | 0.0 | 0.0 | 0.00 | 0.00 | 0.00 | 100 | 1013.5 |
| 20260902015909 | 86 | 227 | 0.0 | 0.0 | 0.00 | 0.00 | 0.00 | 100 | 1013.4 |
| 20260902015356 | 86 | 227 | 0.0 | 0.0 | 0.00 | 0.00 | 0.00 | 100 | 1013.3 |
| 20260902015111 | 86 | 227 | 0.0 | 0.0 | 0.00 | 0.00 | 0.00 | 100 | 1013.4 |
| 20260902014521 | 85 | 227 | 0.0 | 0.0 | 0.00 | 0.00 | 0.00 | 100 | 1013.2 |
| 20260902014407 | 86 | 227 | 0.0 | 0.0 | 0.00 | 0.00 | 0.00 | 100 | 1013.2 |
| 20260902013259 | 85 | 227 | 0.0 | 0.0 | 0.00 | 0.00 | 0.00 | 100 | 1013.2 |
| 20260902012802 | 85 | 227 | 0.0 | 0.0 | 0.00 | 0.00 | 0.00 | 100 | 1013.2 |
| 20260902012259 | 85 | 228 | 0.0 | 0.0 | 0.00 | 0.00 | 0.00 | 100 | 1013.2 |
| 20260902011804 | 85 | 227 | 0.0 | 0.0 | 0.00 | 0.00 | 0.00 | 100 | 1013.1 |
| 20260902011247 | 85 | 227 | 0.0 | 0.0 | 0.00 | 0.00 | 0.00 | 100 | 1013.1 |
| 20260902011014 | 85 | 228 | 0.0 | 0.0 | 0.00 | 0.00 | 0.00 | 100 | 1013.0 |
| 20260902010739 | 85 | 228 | 0.0 | 0.0 | 0.00 | 0.00 | 0.00 | 100 | 1013.0 |
| 20260902005720 | 85 | 228 | 0.0 | 0.0 | 0.00 | 0.00 | 0.00 | 100 | 1013.0 |
| 20260902005221 | 85 | 228 | 0.0 | 0.0 | 0.00 | 0.00 | 0.00 | 100 | 1012.8 |
| 20260902004709 | 85 | 228 | 0.0 | 0.0 | 0.00 | 0.00 | 0.00 | 100 | 1012.7 |
| 20260902004157 | 84 | 228 | 0.0 | 1.0 | 0.00 | 0.00 | 0.00 | 100 | 1012.5 |
| 20260902003650 | 84 | 228 | 0.0 | 1.0 | 0.00 | 0.00 | 0.00 | 100 | 1012.3 |
| 20260902003142 | 85 | 228 | 0.0 | 0.0 | 0.00 | 0.00 | 0.00 | 100 | 1012.1 |
| 20260902002855 | 85 | 228 | 0.0 | 0.0 | 0.00 | 0.00 | 0.00 | 100 | 1012.2 |
| 20260902002123 | 85 | 228 | 0.0 | 0.0 | 0.00 | 0.00 | 0.00 | 100 | 1012.2 |
| 20260902001622 | 85 | 228 | 0.0 | 0.0 | 0.00 | 0.00 | 0.00 | 100 | 1012.2 |
| 20260902001111 | 85 | 228 | 0.0 | 0.0 | 0.00 | 0.00 | 0.00 | 100 | 1012.3 |
| 20260902000827 | 85 | 228 | 0.0 | 0.0 | 0.00 | 0.00 | 0.00 | 100 | 1012.3 |
| 20260902000112 | 85 | 228 | 0.0 | 0.0 | 0.00 | 0.00 | 0.00 | 100 | 1012.3 |
| 20260901235547 | 86 | 228 | 0.0 | 0.0 | 0.00 | 0.00 | 0.00 | 100 | 1012.2 |
| 20260901235037 | 86 | 228 | 0.0 | 0.0 | 0.00 | 0.00 | 0.00 | 100 | 1012.3 |
| 20260901234532 | 86 | 228 | 0.0 | 0.0 | 0.00 | 0.00 | 0.00 | 100 | 1012.2 |
| 20260901234039 | 86 | 228 | 0.0 | 0.0 | 0.00 | 0.00 | 0.00 | 100 | 1012.3 |
| 20260901233520 | 86 | 228 | 0.0 | 0.0 | 0.00 | 0.00 | 0.00 | 100 | 1012.5 |
| 20260901233008 | 87 | 228 | 0.0 | 0.0 | 0.00 | 0.00 | 0.00 | 100 | 1012.4 |
| 20260901232521 | 87 | 228 | 0.0 | 0.0 | 0.00 | 0.00 | 0.00 | 100 | 1012.5 |
| 20260901231952 | 87 | 228 | 0.0 | 0.0 | 0.00 | 0.00 | 0.00 | 100 | 1012.5 |
| 20260901231447 | 87 | 228 | 0.0 | 0.0 | 0.00 | 0.00 | 0.00 | 100 | 1012.5 |
| 20260901230943 | 88 | 228 | 0.0 | 0.0 | 0.00 | 0.00 | 0.00 | 100 | 1012.5 |
| 20260901230434 | 88 | 228 | 0.0 | 0.0 | 0.00 | 0.00 | 0.00 | 100 | 1012.6 |
| 20260901225924 | 89 | 228 | 0.0 | 0.0 | 0.00 | 0.00 | 0.00 | 100 | 1012.5 |
| 20260901225410 | 89 | 228 | 0.0 | 0.0 | 0.00 | 0.00 | 0.00 | 1 | 1012.6 |
| 20260901224909 | 89 | 228 | 0.0 | 0.0 | 0.00 | 0.00 | 0.00 | 1 | 1012.7 |
| 20260901224402 | 90 | 228 | 0.0 | 0.0 | 0.00 | 0.00 | 0.00 | 4 | 1012.7 |
| 20260901223904 | 90 | 228 | 0.0 | 0.0 | 0.00 | 0.00 | 0.00 | 4 | 1012.8 |
| 20260901223354 | 90 | 228 | 0.0 | 0.0 | 0.00 | 0.00 | 0.00 | 4 | 1012.8 |